Regional Weather Roundup
Issued by NWS Northern Indiana

Home | Current Version | Previous Version | Graphics & Text | Print | Product List | Glossary On
Versions: 1 2 3 4 5 6 7 8 9 10 11 12 13 14 15 16 17 18 19 20 21 22 23 24 25 26 27 28 29 30 31 32 33 34 35 36 37 38 39 40 41 42 43 44 45 46 47 48 49 50
935
ASUS43 KIWX 181301
RWRIWX

KIWX WEATHER ROUNDUP
NATIONAL WEATHER SERVICE NORTHERN INDIANA
900 AM EDT FRI AUG 18 2017

NOTE: "FAIR" INDICATES FEW OR NO CLOUDS BELOW 12,000 FEET WITH NO
SIGNIFICANT WEATHER AND/OR OBSTRUCTIONS TO VISIBILITY.

* THESE STATIONS ARE NOT UNDER NWS QUALITY CONTROL. THEY ALSO MAY NOT
  REPORT WEATHER SUCH AS PRECIPITATION OR FOG.

INZ001>027-181400-
NORTHERN INDIANA

CITY           SKY/WX    TMP DP  RH WIND       PRES   REMARKS
GARY*          MOSUNNY   70  63  78 W14       29.85R
MICHIGAN CITY* CLOUDY    70  61  73 W7        29.84R
SOUTH BEND     MOSUNNY   68  66  93 W7        29.83R
ELKHART*       PTSUNNY   70  63  78 SW9       29.83R
GOSHEN         SUNNY     69  63  81 W10       29.83R
MONTICELLO*    SUNNY     67  65  91 W7        29.87R
WARSAW*        MOSUNNY   68  64  88 W9        29.85R
FORT WAYNE     MOSUNNY   70  64  81 W13       29.85R
PERU/GRISSOM   SUNNY     69  67  92 W12       29.86R

$$
INZ028>050-181400-
CENTRAL INDIANA

CITY           SKY/WX    TMP DP  RH WIND       PRES   REMARKS
LAFAYETTE      SUNNY     67  65  93 W6        29.88R
KOKOMO*        MOSUNNY   70  65  84 W12       29.88R
MUNCIE*        SUNNY     72  65  78 W8        29.88R
INDIANAPOLIS   MOSUNNY   71  65  81 W7        29.89R

$$
MIZ043>046-050>051-056>058-064>065-071>073-077>080-181400-
SOUTHWEST LOWER MICHIGAN

CITY           SKY/WX    TMP DP  RH WIND       PRES   REMARKS
BATTLE CREEK   CLOUDY    67  64  90 W14       29.80R FOG
BENTON HARBOR  CLOUDY    70  59  68 W13G23    29.81R
COLDWATER*     PTSUNNY   69  66  89 W10       29.81R
HILLSDALE*     PTSUNNY   68  63  83 W8G18     29.79S
HOLLAND        CLOUDY    69  62  78 W13G21    29.78S
GRAND RAPIDS   CLOUDY    67  64  90 W14       29.76R
KALAMAZOO      CLOUDY    68  63  84 W6        29.79R
STURGIS*       CLOUDY    68  64  88 W10G16    29.81R
THREE RIVERS*  CLOUDY    71  62  73 W6G16     29.81S

$$
OHZ001>008-015>018-024>025-181400-
NORTHWEST OHIO

CITY           SKY/WX    TMP DP  RH WIND       PRES   REMARKS
DEFIANCE       SUNNY     70  65  84 W8        29.82R
FINDLAY        SUNNY     73  65  75 SW9       29.82R
TOLEDO EXPRESS MOSUNNY   71  67  87 W17       29.79R
TOLEDO METCALF SUNNY     72  68  87 SW12      29.80R
LIMA           SUNNY     71  67  87 W12       29.85R

$$
AND FOR LAKE MICHIGAN COASTAL AND OPEN LAKE BUOY OBSERVATIONS

STATION/POSITION TEMP    WIND        PRES    VSBY  WAVE
                 AIR SEA DIR/SP/G                  HT/PER
                 (F)     (DEG/KT/KT) (MB)    (MI)  (FT/S)
CALUMET HARBOR    69     280/  3/  6 1009.9R
MICHIGAN CITY     69     250/ 15/ 17   N/A
BURNS HARBOR      70     280/ 13/ 17 1010.8R
SAINT JOSEPH      71     270/ 14/ 17 1009.5
SOUTH LAKE BUOY   70 71  320/ 19/ 25 1007.8          4/ 5
4 MI NW BRIDGMAN  70 73  300/ 16/ 19 1009.8R         5/ 5
MICHIGAN CITY     70 74  280/ 14/ 17   N/A           4/ 4

$$
&&




USA.gov is the U.S. government's official web portal to all federal, state and local government web resources and services.